QPF
0.00 0.00 0.00 0.00 0.00 0.00 0.00 0.01 0.00 0.01 0.01 0.01 0.01 0.01 0.01 0.02 0.03 0.02 0.01 0.01 0.01 0.01 0.01 0.02 0.03 0.03 0.04 0.05 0.06 0.06 0.07 0.07 0.10 0.12 0.10 0.06 0.05 0.07 0.08 0.07 0.07 0.09 0.08 0.06
0.01 0.01 0.00 0.00 0.00 0.01 0.01 0.01 0.00 0.00 0.01 0.01 0.01 0.00 0.00 0.01 0.01 0.01 0.01 0.00 0.01 0.01 0.01 0.02 0.03 0.04 0.04 0.05 0.05 0.06 0.08 0.08 0.07 0.08 0.08 0.07 0.06 0.06 0.07 0.06 0.06 0.08 0.08 0.07
0.01 0.01 0.01 0.00 0.00 0.01 0.01 0.01 0.00 0.00 0.00 0.00 0.00 0.01 0.00 0.00 0.01 0.01 0.00 0.01 0.01 0.01 0.01 0.02 0.03 0.04 0.04 0.05 0.06 0.07 0.08 0.10 0.09 0.08 0.09 0.07 0.05 0.04 0.04 0.05 0.06 0.08 0.10 0.09
0.01 0.01 0.01 0.01 0.01 0.01 0.01 0.01 0.00 0.00 0.00 0.01 0.01 0.02 0.01 0.00 0.01 0.00 0.00 0.00 0.01 0.01 0.02 0.02 0.02 0.03 0.03 0.04 0.06 0.08 0.11 0.14 0.13 0.08 0.07 0.06 0.04 0.05 0.05 0.04 0.05 0.07 0.09 0.09
0.01 0.01 0.01 0.01 0.00 0.01 0.01 0.01 0.01 0.00 0.00 0.01 0.01 0.02 0.01 0.00 0.00 0.00 0.00 0.00 0.01 0.01 0.01 0.02 0.02 0.03 0.04 0.04 0.05 0.05 0.05 0.08 0.06 0.05 0.05 0.05 0.05 0.05 0.04 0.03 0.03 0.04 0.05 0.06
0.01 0.00 0.01 0.01 0.00 0.01 0.01 0.01 0.01 0.01 0.00 0.01 0.01 0.01 0.00 0.00 0.00 0.00 0.00 0.00 0.00 0.00 0.01 0.01 0.03 0.03 0.04 0.04 0.04 0.04 0.05 0.07 0.07 0.07 0.08 0.08 0.07 0.07 0.07 0.05 0.04 0.03 0.03 0.05
0.01 0.01 0.00 0.00 0.00 0.01 0.01 0.01 0.01 0.01 0.00 0.01 0.01 0.00 0.00 0.01 0.01 0.01 0.00 0.00 0.00 0.00 0.01 0.01 0.02 0.03 0.04 0.06 0.06 0.07 0.06 0.07 0.07 0.08 0.08 0.08 0.07 0.08 0.08 0.07 0.05 0.04 0.03 0.03
0.01 0.02 0.01 0.01 0.01 0.01 0.01 0.01 0.01 0.01 0.00 0.01 0.01 0.00 0.00 0.01 0.01 0.01 0.00 0.00 0.00 0.01 0.01 0.02 0.02 0.02 0.04 0.04 0.05 0.06 0.06 0.06 0.06 0.08 0.07 0.08 0.07 0.07 0.07 0.06 0.05 0.03 0.02 0.02
0.01 0.02 0.01 0.02 0.02 0.01 0.01 0.02 0.01 0.01 0.00 0.01 0.00 0.00 0.01 0.01 0.00 0.00 0.00 0.00 0.01 0.01 0.01 0.02 0.03 0.03 0.04 0.04 0.04 0.04 0.04 0.05 0.06 0.07 0.06 0.06 0.06 0.06 0.07 0.05 0.02 0.01 0.01 0.01
0.01 0.02 0.01 0.01 0.02 0.02 0.02 0.02 0.01 0.01 0.01 0.01 0.01 0.01 0.01 0.00 0.00 0.00 0.00 0.00 0.01 0.01 0.02 0.03 0.04 0.04 0.03 0.03 0.03 0.02 0.02 0.02 0.02 0.03 0.03 0.03 0.03 0.03 0.04 0.04 0.02 0.01 0.00 0.01
0.01 0.01 0.01 0.01 0.01 0.01 0.01 0.01 0.01 0.01 0.01 0.01 0.00 0.01 0.01 0.01 0.00 0.00 0.00 0.00 0.00 0.01 0.01 0.02 0.02 0.03 0.01 0.01 0.01 0.01 0.01 0.01 0.01 0.01 0.01 0.01 0.02 0.01 0.01 0.02 0.03 0.03 0.02 0.02
0.01 0.01 0.01 0.01 0.01 0.01 0.01 0.01 0.01 0.01 0.01 0.01 0.01 0.01 0.01 0.01 0.00 0.01 0.01 0.01 0.01 0.01 0.03 0.03 0.02 0.02 0.01 0.01 0.01 0.01 0.01 0.01 0.01 0.01 0.01 0.00 0.01 0.01 0.01 0.02 0.06 0.08 0.05 0.04
0.01 0.01 0.01 0.01 0.01 0.00 0.01 0.00 0.01 0.00 0.01 0.01 0.01 0.01 0.01 0.01 0.01 0.01 0.01 0.01 0.02 0.02 0.03 0.03 0.02 0.02 0.02 0.02 0.02 0.02 0.02 0.02 0.01 0.01 0.01 0.00 0.00 0.01 0.01 0.01 0.03 0.06 0.06 0.04
0.00 0.00 0.00 0.01 0.00 0.01 0.01 0.00 0.00 0.00 0.00 0.01 0.01 0.01 0.01 0.01 0.01 0.01 0.02 0.02 0.02 0.03 0.02 0.02 0.02 0.02 0.02 0.02 0.02 0.01 0.01 0.01 0.02 0.01 0.01 0.00 0.00 0.00 0.01 0.01 0.02 0.03 0.03 0.02
0.00 0.00 0.00 0.00 0.00 0.01 0.01 0.00 0.00 0.01 0.01 0.01 0.01 0.01 0.01 0.01 0.01 0.01 0.01 0.02 0.03 0.03 0.03 0.02 0.02 0.02 0.01 0.01 0.01 0.01 0.00 0.00 0.01 0.01 0.01 0.01 0.00 0.01 0.01 0.02 0.03 0.01 0.02 0.02
0.00 0.00 0.00 0.00 0.00 0.01 0.01 0.00 0.01 0.01 0.01 0.01 0.01 0.00 0.01 0.01 0.01 0.01 0.01 0.02 0.03 0.02 0.02 0.02 0.02 0.02 0.01 0.01 0.01 0.00 0.00 0.00 0.01 0.01 0.01 0.01 0.00 0.00 0.00 0.01 0.01 0.01 0.02 0.02
0.00 0.00 0.00 0.00 0.00 0.01 0.01 0.01 0.01 0.01 0.01 0.01 0.01 0.01 0.01 0.01 0.01 0.01 0.01 0.01 0.01 0.01 0.02 0.03 0.03 0.03 0.03 0.02 0.01 0.01 0.01 0.01 0.01 0.01 0.01 0.00 0.00 0.00 0.00 0.01 0.01 0.01 0.02 0.02
0.00 0.01 0.00 0.00 0.01 0.02 0.01 0.01 0.01 0.01 0.02 0.01 0.01 0.01 0.01 0.01 0.01 0.01 0.00 0.00 0.00 0.01 0.02 0.03 0.04 0.04 0.03 0.02 0.02 0.01 0.01 0.01 0.01 0.01 0.01 0.01 0.00 0.01 0.01 0.01 0.02 0.02 0.02 0.02
0.00 0.01 0.01 0.01 0.01 0.01 0.01 0.00 0.01 0.02 0.02 0.01 0.01 0.01 0.01 0.01 0.01 0.01 0.00 0.00 0.00 0.01 0.02 0.02 0.02 0.01 0.01 0.01 0.01 0.02 0.03 0.03 0.02 0.01 0.01 0.01 0.01 0.01 0.01 0.01 0.02 0.03 0.03 0.02
0.01 0.01 0.01 0.01 0.01 0.01 0.01 0.01 0.01 0.01 0.02 0.01 0.01 0.02 0.01 0.01 0.01 0.00 0.00 0.00 0.01 0.01 0.01 0.01 0.01 0.00 0.01 0.01 0.01 0.02 0.04 0.05 0.05 0.03 0.03 0.03 0.03 0.02 0.02 0.02 0.02 0.03 0.03 0.02
0.01 0.01 0.01 0.01 0.01 0.01 0.01 0.01 0.01 0.01 0.01 0.01 0.01 0.03 0.02 0.01 0.01 0.01 0.01 0.01 0.01 0.02 0.01 0.00 0.00 0.00 0.01 0.02 0.04 0.03 0.03 0.04 0.07 0.07 0.06 0.04 0.03 0.02 0.02 0.03 0.02 0.01 0.01 0.01
0.01 0.02 0.02 0.01 0.02 0.01 0.00 0.00 0.01 0.01 0.01 0.01 0.01 0.02 0.02 0.03 0.04 0.04 0.04 0.04 0.04 0.06 0.04 0.03 0.02 0.02 0.02 0.04 0.05 0.03 0.03 0.03 0.05 0.04 0.03 0.03 0.03 0.02 0.03 0.02 0.01 0.01 0.01 0.01
0.03 0.04 0.03 0.02 0.01 0.01 0.00 0.01 0.01 0.03 0.04 0.03 0.03 0.03 0.04 0.04 0.05 0.06 0.05 0.05 0.06 0.07 0.07 0.06 0.06 0.05 0.06 0.06 0.05 0.03 0.03 0.02 0.02 0.02 0.02 0.01 0.01 0.01 0.02 0.01 0.01 0.02 0.01 0.01
0.07 0.08 0.06 0.02 0.01 0.01 0.00 0.00 0.01 0.04 0.05 0.04 0.03 0.02 0.02 0.03 0.04 0.03 0.03 0.02 0.02 0.02 0.03 0.02 0.02 0.03 0.04 0.03 0.03 0.02 0.02 0.02 0.01 0.01 0.01 0.01 0.01 0.01 0.01 0.01 0.01 0.01 0.01 0.01
0.07 0.07 0.05 0.02 0.01 0.01 0.00 0.01 0.02 0.04 0.03 0.02 0.02 0.01 0.01 0.02 0.02 0.02 0.03 0.03 0.02 0.02 0.02 0.02 0.02 0.02 0.02 0.02 0.01 0.01 0.01 0.01 0.00 0.00 0.00 0.00 0.01 0.01 0.01 0.01 0.01 0.01 0.01 0.01
0.06 0.06 0.05 0.03 0.02 0.01 0.01 0.01 0.02 0.03 0.02 0.02 0.01 0.01 0.02 0.02 0.02 0.02 0.02 0.02 0.02 0.02 0.02 0.03 0.02 0.02 0.02 0.02 0.02 0.01 0.01 0.01 0.01 0.01 0.00 0.00 0.00 0.00 0.00 0.01 0.00 0.00 0.01 0.01
MSLP
1011.95 1012.52 1012.98 1013.35 1013.67 1014.00 1014.38 1014.85 1015.41 1016.04 1016.70 1017.32 1017.84 1018.20 1018.38 1018.35 1018.15 1017.81 1017.38 1016.93 1016.48 1016.08 1015.75 1015.46 1015.21 1014.97 1014.72 1014.41 1014.06 1013.65 1013.20 1012.73 1012.24 1011.77 1011.30 1010.84 1010.37 1009.89 1009.36 1008.80 1008.21 1007.61 1007.04 1006.54
1012.19 1012.60 1012.93 1013.21 1013.51 1013.88 1014.35 1014.94 1015.64 1016.40 1017.14 1017.79 1018.28 1018.58 1018.65 1018.52 1018.22 1017.82 1017.38 1016.95 1016.58 1016.28 1016.04 1015.85 1015.67 1015.46 1015.20 1014.87 1014.48 1014.04 1013.56 1013.07 1012.58 1012.11 1011.65 1011.19 1010.71 1010.19 1009.62 1009.02 1008.38 1007.76 1007.17 1006.67
1012.28 1012.51 1012.71 1012.92 1013.22 1013.65 1014.24 1014.98 1015.83 1016.71 1017.53 1018.21 1018.67 1018.88 1018.85 1018.60 1018.21 1017.75 1017.30 1016.91 1016.62 1016.42 1016.30 1016.20 1016.09 1015.91 1015.66 1015.31 1014.89 1014.41 1013.91 1013.42 1012.94 1012.49 1012.05 1011.59 1011.11 1010.57 1009.98 1009.33 1008.66 1008.00 1007.39 1006.86
1012.30 1012.35 1012.42 1012.58 1012.90 1013.42 1014.15 1015.05 1016.06 1017.06 1017.95 1018.64 1019.05 1019.18 1019.02 1018.66 1018.17 1017.66 1017.20 1016.85 1016.63 1016.53 1016.51 1016.50 1016.45 1016.31 1016.06 1015.70 1015.25 1014.75 1014.24 1013.75 1013.29 1012.86 1012.44 1012.01 1011.54 1010.99 1010.38 1009.70 1008.99 1008.29 1007.65 1007.09
1012.31 1012.20 1012.16 1012.29 1012.65 1013.28 1014.15 1015.22 1016.37 1017.48 1018.43 1019.12 1019.47 1019.50 1019.23 1018.75 1018.16 1017.60 1017.12 1016.80 1016.65 1016.63 1016.69 1016.75 1016.75 1016.64 1016.39 1016.02 1015.55 1015.03 1014.51 1014.02 1013.58 1013.18 1012.79 1012.39 1011.93 1011.39 1010.76 1010.06 1009.32 1008.58 1007.88 1007.28
1012.39 1012.14 1012.03 1012.15 1012.56 1013.28 1014.29 1015.49 1016.76 1017.95 1018.93 1019.60 1019.90 1019.83 1019.45 1018.86 1018.20 1017.58 1017.10 1016.81 1016.70 1016.75 1016.87 1016.99 1017.02 1016.92 1016.67 1016.28 1015.78 1015.24 1014.71 1014.22 1013.79 1013.41 1013.05 1012.67 1012.22 1011.69 1011.05 1010.33 1009.56 1008.77 1008.04 1007.38
1012.56 1012.22 1012.06 1012.18 1012.64 1013.44 1014.54 1015.83 1017.17 1018.41 1019.39 1020.02 1020.25 1020.10 1019.64 1018.97 1018.25 1017.61 1017.13 1016.86 1016.80 1016.89 1017.06 1017.21 1017.27 1017.17 1016.90 1016.48 1015.95 1015.38 1014.83 1014.33 1013.89 1013.52 1013.17 1012.80 1012.37 1011.83 1011.19 1010.44 1009.64 1008.82 1008.04 1007.35
1012.81 1012.42 1012.24 1012.37 1012.86 1013.70 1014.84 1016.16 1017.52 1018.75 1019.70 1020.28 1020.45 1020.23 1019.71 1019.01 1018.28 1017.64 1017.18 1016.94 1016.92 1017.05 1017.25 1017.42 1017.48 1017.37 1017.07 1016.62 1016.07 1015.46 1014.87 1014.35 1013.90 1013.51 1013.16 1012.78 1012.33 1011.79 1011.12 1010.36 1009.53 1008.69 1007.89 1007.18
1013.09 1012.70 1012.53 1012.67 1013.16 1014.00 1015.12 1016.42 1017.72 1018.89 1019.77 1020.29 1020.41 1020.16 1019.63 1018.94 1018.23 1017.63 1017.22 1017.04 1017.06 1017.22 1017.44 1017.61 1017.65 1017.52 1017.20 1016.71 1016.12 1015.48 1014.86 1014.30 1013.82 1013.40 1013.02 1012.61 1012.14 1011.57 1010.88 1010.09 1009.25 1008.39 1007.59 1006.88
1013.34 1013.00 1012.86 1013.01 1013.48 1014.28 1015.33 1016.52 1017.72 1018.78 1019.57 1020.02 1020.10 1019.84 1019.34 1018.72 1018.09 1017.57 1017.24 1017.12 1017.19 1017.37 1017.59 1017.75 1017.77 1017.61 1017.26 1016.75 1016.12 1015.45 1014.80 1014.21 1013.68 1013.23 1012.79 1012.34 1011.83 1011.22 1010.51 1009.70 1008.85 1008.00 1007.21 1006.53
1013.50 1013.25 1013.17 1013.33 1013.77 1014.48 1015.41 1016.46 1017.51 1018.42 1019.10 1019.48 1019.54 1019.32 1018.89 1018.36 1017.86 1017.46 1017.23 1017.18 1017.29 1017.49 1017.70 1017.83 1017.82 1017.63 1017.25 1016.72 1016.08 1015.39 1014.72 1014.10 1013.54 1013.03 1012.55 1012.04 1011.48 1010.83 1010.09 1009.28 1008.43 1007.60 1006.84 1006.21
1013.58 1013.45 1013.43 1013.61 1014.00 1014.61 1015.39 1016.27 1017.13 1017.88 1018.44 1018.75 1018.80 1018.64 1018.32 1017.93 1017.57 1017.31 1017.19 1017.22 1017.36 1017.57 1017.76 1017.85 1017.80 1017.58 1017.18 1016.64 1016.00 1015.32 1014.64 1014.01 1013.42 1012.88 1012.35 1011.79 1011.18 1010.50 1009.74 1008.92 1008.09 1007.29 1006.59 1006.01
1013.59 1013.59 1013.65 1013.85 1014.19 1014.69 1015.31 1015.99 1016.66 1017.24 1017.68 1017.93 1018.00 1017.91 1017.72 1017.48 1017.28 1017.16 1017.16 1017.25 1017.42 1017.61 1017.77 1017.82 1017.72 1017.47 1017.06 1016.53 1015.91 1015.25 1014.59 1013.96 1013.37 1012.80 1012.23 1011.64 1011.00 1010.29 1009.52 1008.71 1007.91 1007.16 1006.52 1006.01
1013.59 1013.71 1013.86 1014.07 1014.36 1014.74 1015.20 1015.69 1016.16 1016.59 1016.91 1017.12 1017.21 1017.20 1017.14 1017.06 1017.02 1017.04 1017.13 1017.28 1017.46 1017.63 1017.74 1017.74 1017.61 1017.33 1016.92 1016.40 1015.82 1015.20 1014.58 1013.98 1013.40 1012.82 1012.24 1011.62 1010.96 1010.24 1009.48 1008.70 1007.94 1007.25 1006.66 1006.22
1013.64 1013.88 1014.09 1014.30 1014.54 1014.80 1015.10 1015.40 1015.70 1015.97 1016.19 1016.36 1016.47 1016.55 1016.61 1016.68 1016.79 1016.93 1017.11 1017.30 1017.49 1017.63 1017.69 1017.64 1017.47 1017.17 1016.77 1016.29 1015.75 1015.19 1014.62 1014.06 1013.50 1012.94 1012.35 1011.73 1011.06 1010.35 1009.61 1008.87 1008.17 1007.54 1007.02 1006.63
1013.80 1014.11 1014.36 1014.56 1014.73 1014.88 1015.02 1015.15 1015.29 1015.42 1015.55 1015.68 1015.82 1015.97 1016.14 1016.34 1016.57 1016.82 1017.07 1017.30 1017.48 1017.60 1017.61 1017.53 1017.33 1017.03 1016.64 1016.20 1015.72 1015.22 1014.71 1014.19 1013.67 1013.12 1012.55 1011.93 1011.28 1010.59 1009.89 1009.20 1008.55 1007.99 1007.53 1007.19
1014.09 1014.43 1014.67 1014.83 1014.92 1014.94 1014.94 1014.92 1014.90 1014.91 1014.96 1015.06 1015.22 1015.43 1015.70 1016.01 1016.34 1016.68 1016.99 1017.25 1017.44 1017.53 1017.53 1017.41 1017.20 1016.91 1016.56 1016.16 1015.73 1015.29 1014.84 1014.36 1013.87 1013.35 1012.79 1012.19 1011.55 1010.89 1010.23 1009.60 1009.02 1008.52 1008.12 1007.82
1014.45 1014.77 1014.97 1015.06 1015.04 1014.95 1014.80 1014.64 1014.50 1014.41 1014.39 1014.47 1014.64 1014.91 1015.25 1015.64 1016.06 1016.47 1016.83 1017.13 1017.33 1017.43 1017.42 1017.31 1017.11 1016.84 1016.53 1016.18 1015.80 1015.41 1015.00 1014.56 1014.09 1013.57 1013.02 1012.43 1011.82 1011.19 1010.58 1010.01 1009.49 1009.06 1008.71 1008.45
1014.81 1015.06 1015.18 1015.17 1015.04 1014.82 1014.56 1014.28 1014.04 1013.87 1013.80 1013.87 1014.06 1014.36 1014.77 1015.23 1015.72 1016.19 1016.60 1016.94 1017.17 1017.29 1017.30 1017.21 1017.05 1016.82 1016.55 1016.25 1015.92 1015.56 1015.17 1014.75 1014.28 1013.77 1013.22 1012.64 1012.04 1011.44 1010.88 1010.36 1009.91 1009.53 1009.23 1009.00
1015.06 1015.21 1015.22 1015.09 1014.85 1014.53 1014.16 1013.79 1013.48 1013.27 1013.19 1013.25 1013.47 1013.82 1014.27 1014.79 1015.33 1015.86 1016.32 1016.69 1016.97 1017.12 1017.18 1017.14 1017.02 1016.85 1016.63 1016.37 1016.08 1015.74 1015.36 1014.93 1014.45 1013.92 1013.36 1012.77 1012.18 1011.61 1011.09 1010.62 1010.22 1009.90 1009.64 1009.44
1015.10 1015.12 1015.01 1014.77 1014.43 1014.02 1013.59 1013.18 1012.85 1012.63 1012.56 1012.65 1012.90 1013.29 1013.79 1014.36 1014.95 1015.51 1016.01 1016.43 1016.75 1016.96 1017.07 1017.09 1017.03 1016.92 1016.74 1016.53 1016.25 1015.93 1015.54 1015.10 1014.59 1014.03 1013.44 1012.84 1012.25 1011.70 1011.20 1010.78 1010.42 1010.15 1009.93 1009.76
1014.86 1014.76 1014.53 1014.19 1013.78 1013.32 1012.87 1012.46 1012.15 1011.98 1011.96 1012.10 1012.41 1012.84 1013.39 1013.99 1014.61 1015.21 1015.74 1016.20 1016.56 1016.81 1016.98 1017.06 1017.06 1017.00 1016.88 1016.69 1016.44 1016.11 1015.71 1015.24 1014.69 1014.10 1013.48 1012.86 1012.26 1011.72 1011.24 1010.84 1010.53 1010.29 1010.10 1009.96
1014.33 1014.11 1013.79 1013.38 1012.92 1012.46 1012.04 1011.68 1011.45 1011.36 1011.42 1011.65 1012.02 1012.52 1013.10 1013.74 1014.38 1014.99 1015.54 1016.02 1016.41 1016.71 1016.92 1017.05 1017.11 1017.09 1017.01 1016.85 1016.61 1016.28 1015.85 1015.35 1014.78 1014.15 1013.50 1012.86 1012.25 1011.70 1011.24 1010.86 1010.57 1010.35 1010.19 1010.07
1013.58 1013.25 1012.85 1012.41 1011.95 1011.52 1011.16 1010.91 1010.79 1010.82 1011.00 1011.33 1011.78 1012.34 1012.97 1013.62 1014.27 1014.88 1015.43 1015.91 1016.31 1016.64 1016.88 1017.05 1017.15 1017.17 1017.12 1016.97 1016.74 1016.41 1015.97 1015.44 1014.84 1014.19 1013.52 1012.86 1012.24 1011.69 1011.23 1010.86 1010.58 1010.38 1010.23 1010.11
1012.69 1012.28 1011.83 1011.37 1010.94 1010.58 1010.33 1010.20 1010.21 1010.38 1010.69 1011.13 1011.68 1012.30 1012.96 1013.63 1014.27 1014.87 1015.41 1015.87 1016.27 1016.59 1016.85 1017.04 1017.16 1017.21 1017.17 1017.05 1016.82 1016.49 1016.05 1015.51 1014.90 1014.24 1013.56 1012.89 1012.27 1011.72 1011.27 1010.90 1010.62 1010.41 1010.26 1010.14
1011.79 1011.32 1010.84 1010.39 1010.01 1009.73 1009.59 1009.59 1009.76 1010.07 1010.51 1011.06 1011.69 1012.36 1013.05 1013.72 1014.35 1014.92 1015.43 1015.87 1016.24 1016.55 1016.80 1017.00 1017.13 1017.19 1017.17 1017.06 1016.85 1016.53 1016.10 1015.57 1014.97 1014.32 1013.65 1012.99 1012.38 1011.84 1011.38 1011.01 1010.72 1010.50 1010.34 1010.21
Thickness
5735 5723 5716 5723 5727 5729 5726 5721 5718 5726 5740 5735 5730 5731 5738 5740 5738 5736 5735 5735 5734 5734 5734 5733 5732 5731 5727 5724 5722 5720 5717 5715 5713 5710 5707 5704 5702 5701 5700 5700 5699 5697 5695 5693
5721 5718 5735 5739 5735 5731 5724 5717 5718 5726 5737 5734 5726 5727 5736 5738 5737 5737 5735 5735 5734 5731 5730 5730 5729 5727 5724 5722 5719 5717 5714 5712 5710 5708 5705 5702 5700 5698 5696 5696 5695 5694 5692 5689
5718 5732 5743 5737 5731 5727 5723 5718 5721 5722 5728 5730 5724 5718 5726 5734 5736 5736 5736 5735 5734 5732 5728 5727 5726 5723 5721 5719 5717 5715 5712 5709 5707 5705 5702 5699 5696 5694 5692 5691 5690 5689 5688 5687
5722 5737 5738 5733 5730 5728 5718 5733 5730 5724 5712 5704 5713 5696 5716 5724 5726 5730 5731 5731 5730 5730 5728 5725 5723 5721 5719 5718 5716 5713 5710 5707 5704 5702 5699 5695 5692 5689 5688 5687 5686 5686 5686 5684
5724 5735 5734 5730 5735 5736 5729 5737 5729 5721 5710 5701 5704 5696 5705 5718 5718 5723 5727 5728 5728 5728 5726 5724 5722 5720 5718 5716 5713 5709 5707 5704 5702 5699 5696 5693 5690 5687 5685 5684 5683 5683 5682 5681
5732 5743 5742 5741 5745 5743 5737 5728 5719 5708 5699 5690 5701 5695 5699 5711 5719 5724 5727 5727 5726 5726 5724 5722 5720 5717 5715 5713 5710 5707 5703 5701 5699 5696 5694 5691 5688 5685 5682 5680 5679 5678 5677 5676
5722 5734 5743 5747 5735 5734 5729 5708 5689 5687 5679 5686 5703 5698 5703 5724 5729 5729 5728 5727 5726 5724 5721 5718 5715 5714 5711 5709 5707 5704 5701 5698 5696 5694 5692 5690 5687 5684 5681 5678 5676 5674 5673 5671
5706 5711 5735 5742 5736 5726 5721 5712 5689 5680 5678 5686 5699 5696 5712 5729 5732 5732 5730 5727 5724 5721 5719 5716 5714 5712 5709 5706 5704 5702 5699 5696 5693 5691 5689 5687 5685 5682 5679 5676 5673 5671 5670 5668
5705 5710 5738 5745 5745 5734 5718 5709 5711 5692 5688 5682 5690 5702 5718 5728 5726 5726 5725 5723 5720 5719 5717 5715 5712 5710 5707 5704 5701 5699 5696 5693 5691 5690 5688 5685 5683 5680 5677 5674 5671 5669 5667 5666
5717 5709 5727 5738 5740 5734 5727 5714 5698 5687 5677 5676 5688 5695 5702 5715 5717 5719 5718 5717 5717 5716 5714 5712 5710 5707 5705 5703 5699 5696 5694 5691 5689 5687 5685 5683 5680 5677 5674 5671 5668 5665 5664 5662
5721 5708 5714 5723 5720 5719 5715 5708 5697 5685 5685 5676 5674 5689 5716 5716 5717 5716 5716 5716 5714 5713 5711 5710 5707 5705 5703 5700 5696 5693 5691 5689 5687 5685 5682 5680 5677 5675 5672 5668 5666 5663 5660 5658
5716 5702 5697 5711 5726 5731 5722 5711 5699 5689 5684 5679 5676 5687 5720 5719 5718 5716 5714 5713 5712 5711 5709 5706 5704 5701 5698 5696 5694 5692 5689 5688 5686 5683 5680 5677 5675 5672 5669 5666 5663 5660 5657 5654
5714 5699 5688 5695 5706 5717 5714 5711 5704 5694 5682 5674 5674 5690 5715 5715 5713 5712 5710 5709 5707 5706 5704 5701 5699 5697 5695 5693 5691 5690 5687 5685 5683 5680 5677 5674 5671 5668 5665 5662 5660 5657 5654 5651
5719 5697 5691 5688 5695 5705 5706 5706 5701 5693 5680 5676 5682 5693 5705 5705 5705 5706 5705 5704 5703 5701 5699 5696 5694 5692 5691 5689 5688 5687 5685 5683 5681 5678 5674 5671 5668 5665 5662 5659 5656 5653 5650 5647
5711 5695 5697 5701 5708 5708 5705 5704 5700 5696 5692 5685 5691 5693 5699 5702 5702 5703 5701 5699 5698 5696 5694 5693 5691 5689 5688 5686 5685 5684 5682 5681 5678 5675 5671 5669 5666 5662 5659 5655 5652 5649 5646 5644
5698 5692 5694 5695 5703 5704 5699 5701 5700 5697 5694 5691 5692 5692 5700 5701 5699 5697 5695 5695 5693 5692 5691 5690 5688 5686 5685 5684 5682 5681 5679 5677 5674 5671 5668 5665 5662 5659 5655 5652 5648 5645 5642 5640
5686 5684 5680 5679 5692 5694 5682 5692 5693 5691 5692 5690 5686 5690 5695 5693 5693 5692 5691 5690 5690 5689 5688 5687 5685 5683 5681 5680 5678 5676 5675 5673 5670 5667 5664 5661 5658 5655 5652 5649 5645 5641 5638 5635
5681 5675 5668 5668 5678 5666 5681 5700 5699 5693 5691 5692 5691 5692 5692 5692 5692 5691 5690 5688 5686 5686 5685 5683 5682 5681 5679 5678 5676 5674 5672 5669 5666 5663 5661 5658 5655 5652 5648 5645 5641 5638 5635 5631
5682 5673 5661 5656 5660 5665 5682 5693 5692 5687 5684 5691 5689 5689 5689 5688 5686 5685 5687 5686 5684 5683 5682 5681 5680 5679 5677 5674 5672 5669 5666 5664 5662 5661 5658 5656 5652 5649 5645 5642 5639 5635 5632 5629
5674 5671 5660 5655 5657 5654 5673 5690 5696 5689 5676 5689 5687 5684 5681 5681 5672 5676 5683 5682 5680 5679 5678 5677 5675 5674 5672 5670 5668 5665 5662 5660 5659 5657 5655 5653 5650 5646 5642 5639 5636 5633 5629 5626
5659 5654 5651 5649 5652 5658 5676 5686 5690 5669 5670 5683 5683 5681 5678 5676 5676 5679 5680 5678 5676 5674 5673 5672 5670 5668 5667 5665 5663 5660 5658 5656 5656 5654 5652 5650 5647 5644 5640 5636 5634 5630 5627 5623
5649 5646 5644 5642 5644 5651 5675 5678 5671 5670 5677 5678 5679 5678 5677 5675 5676 5676 5675 5672 5670 5669 5668 5666 5665 5663 5661 5660 5658 5655 5653 5653 5651 5650 5648 5645 5643 5641 5638 5633 5630 5627 5623 5619
5645 5646 5645 5647 5649 5660 5667 5669 5673 5673 5672 5674 5674 5674 5672 5670 5670 5671 5669 5667 5665 5664 5663 5661 5659 5657 5656 5655 5653 5651 5651 5650 5648 5646 5643 5641 5639 5636 5634 5630 5626 5622 5619 5616
5643 5645 5643 5644 5651 5657 5661 5665 5668 5669 5669 5671 5671 5670 5669 5666 5665 5664 5663 5661 5659 5658 5657 5655 5653 5651 5650 5650 5649 5648 5648 5647 5644 5641 5639 5637 5635 5632 5630 5626 5623 5619 5616 5613
5634 5636 5634 5636 5645 5651 5656 5658 5660 5662 5664 5665 5666 5666 5665 5663 5660 5659 5657 5656 5655 5653 5652 5651 5649 5647 5646 5646 5645 5645 5644 5642 5640 5637 5635 5633 5631 5628 5625 5623 5620 5617 5615 5612
5624 5625 5626 5629 5636 5637 5643 5651 5653 5654 5656 5658 5659 5659 5659 5658 5655 5654 5652 5651 5650 5648 5646 5645 5643 5642 5642 5641 5640 5640 5639 5638 5635 5633 5631 5629 5626 5624 5622 5619 5617 5615 5612 5610